| time (UTC) | temp F | wind direction | speed knots | gust knots | rain 1hr in | rain 24hr in | rain mn in | humidity % | barometer mb |
| 20260510190028 | 63 | 11 | 0.0 | 5.2 | 0.00 | 0.00 | 0.00 | 45 | 1016.8 |
| 20260510184521 | 63 | 294 | 0.0 | 5.2 | 0.00 | 0.00 | 0.00 | 44 | 1016.8 |
| 20260510183021 | 63 | 326 | 0.0 | 7.8 | 0.00 | 0.00 | 0.00 | 45 | 1016.7 |
| 20260510181525 | 63 | 20 | 0.0 | 4.3 | 0.00 | 0.00 | 0.00 | 50 | 1016.5 |
| 20260510180018 | 62 | 337 | 0.0 | 4.3 | 0.00 | 0.00 | 0.00 | 50 | 1016.6 |
| 20260510174517 | 62 | 74 | 0.0 | 5.2 | 0.00 | 0.00 | 0.00 | 45 | 1016.3 |
| 20260510173015 | 62 | 306 | 0.0 | 7.8 | 0.00 | 0.00 | 0.00 | 47 | 1016.4 |
| 20260510171515 | 62 | 57 | 0.0 | 3.5 | 0.00 | 0.00 | 0.00 | 50 | 1016.3 |
| 20260510170014 | 62 | 304 | 0.0 | 5.2 | 0.00 | 0.00 | 0.00 | 48 | 1016.4 |
| 20260510164515 | 62 | 36 | 0.0 | 2.6 | 0.00 | 0.00 | 0.00 | 49 | 1016.5 |
| 20260510163018 | 61 | 69 | 0.0 | 3.5 | 0.00 | 0.00 | 0.00 | 50 | 1016.5 |
| 20260510161513 | 61 | 32 | 0.0 | 4.3 | 0.00 | 0.00 | 0.00 | 54 | 1016.5 |
| 20260510160018 | 60 | 331 | 0.0 | 2.6 | 0.00 | 0.00 | 0.00 | 52 | 1016.4 |
| 20260510154510 | 60 | 349 | 0.0 | 1.7 | 0.00 | 0.01 | 0.00 | 58 | 1016.3 |
| 20260510153009 | 59 | 5 | 0.0 | 2.6 | 0.00 | 0.01 | 0.00 | 53 | 1015.9 |
| 20260510151507 | 59 | 71 | 0.0 | 3.5 | 0.00 | 0.01 | 0.00 | 55 | 1015.9 |
| 20260510150005 | 58 | 350 | 0.0 | 4.3 | 0.00 | 0.01 | 0.00 | 59 | 1015.5 |
| 20260510144510 | 58 | 44 | 0.0 | 1.7 | 0.00 | 0.01 | 0.00 | 58 | 1015.5 |
| 20260510143004 | 57 | 62 | 0.0 | 3.5 | 0.00 | 0.01 | 0.00 | 57 | 1015.4 |
| 20260510141502 | 56 | 31 | 0.0 | 4.3 | 0.00 | 0.01 | 0.00 | 62 | 1015.1 |
| 20260510140100 | 56 | 57 | 0.0 | 4.3 | 0.00 | 0.01 | 0.00 | 60 | 1014.9 |
| 20260510134607 | 55 | 49 | 0.0 | 5.2 | 0.00 | 0.01 | 0.00 | 60 | 1014.9 |
| 20260510133057 | 55 | 56 | 0.9 | 3.5 | 0.00 | 0.01 | 0.00 | 62 | 1014.8 |
| 20260510131556 | 54 | 18 | 0.0 | 3.5 | 0.00 | 0.01 | 0.00 | 63 | 1014.6 |
| 20260510130054 | 53 | 21 | 0.0 | 4.3 | 0.00 | 0.01 | 0.00 | 64 | 1014.4 |
| 20260510124600 | 53 | 28 | 0.0 | 0.0 | 0.00 | 0.01 | 0.00 | 66 | 1014.2 |
| 20260510123053 | 53 | 40 | 0.0 | 3.5 | 0.00 | 0.01 | 0.00 | 65 | 1014.1 |
| 20260510121550 | 53 | 42 | 0.0 | 0.0 | 0.00 | 0.01 | 0.00 | 67 | 1013.8 |
| 20260510120048 | 53 | 50 | 0.0 | 0.0 | 0.00 | 0.01 | 0.00 | 66 | 1013.7 |
| 20260510114546 | 53 | 46 | 0.0 | 0.0 | 0.00 | 0.01 | 0.00 | 66 | 1013.5 |
| 20260510113046 | 53 | 40 | 0.0 | 0.0 | 0.00 | 0.01 | 0.00 | 67 | 1013.5 |
| 20260510111543 | 53 | 38 | 0.0 | 0.0 | 0.00 | 0.01 | 0.00 | 71 | 1013.1 |
| 20260510110041 | 53 | 19 | 0.0 | 0.9 | 0.00 | 0.01 | 0.00 | 70 | 1012.7 |
| 20260510104539 | 53 | 36 | 0.0 | 3.5 | 0.00 | 0.02 | 0.00 | 70 | 1012.5 |
| 20260510101535 | 54 | 13 | 0.0 | 0.0 | 0.00 | 0.02 | 0.00 | 74 | 1012.1 |
| 20260510100032 | 55 | 34 | 0.0 | 0.0 | 0.00 | 0.02 | 0.00 | 73 | 1011.6 |
| 20260510094539 | 55 | 5 | 0.0 | 0.0 | 0.00 | 0.04 | 0.00 | 73 | 1011.5 |
| 20260510093027 | 56 | 19 | 0.0 | 0.0 | 0.00 | 0.04 | 0.00 | 73 | 1011.2 |
| 20260510091523 | 56 | 360 | 0.0 | 0.0 | 0.00 | 0.04 | 0.00 | 73 | 1010.6 |
| 20260510090020 | 57 | 37 | 0.0 | 3.5 | 0.00 | 0.04 | 0.00 | 73 | 1010.3 |
| 20260510084518 | 57 | 17 | 0.0 | 5.2 | 0.00 | 0.06 | 0.00 | 73 | 1010.0 |
| 20260510083016 | 58 | 13 | 0.0 | 3.5 | 0.00 | 0.06 | 0.00 | 73 | 1009.8 |
| 20260510081528 | 59 | 355 | 0.0 | 3.5 | 0.00 | 0.06 | 0.00 | 72 | 1009.7 |
| 20260510080009 | 60 | 338 | 0.0 | 0.9 | 0.00 | 0.06 | 0.00 | 73 | 1009.7 |
| 20260510074509 | 60 | 277 | 0.0 | 0.0 | 0.00 | 0.09 | 0.00 | 71 | 1009.6 |
| 20260510073009 | 60 | 305 | 0.0 | 3.5 | 0.00 | 0.09 | 0.00 | 70 | 1009.4 |
| 20260510071508 | 61 | 290 | 0.0 | 0.9 | 0.00 | 0.09 | 0.00 | 69 | 1009.6 |
| 20260510070007 | 61 | 311 | 0.0 | 3.5 | 0.00 | 0.09 | 0.00 | 68 | 1009.7 |
| 20260510064506 | 62 | 259 | 0.0 | 0.9 | 0.00 | 0.13 | 0.00 | 67 | 1009.4 |
| 20260510063006 | 62 | 291 | 0.0 | 3.5 | 0.00 | 0.13 | 0.00 | 67 | 1009.4 |
| 20260510061505 | 63 | 287 | 0.9 | 8.7 | 0.00 | 0.13 | 0.00 | 68 | 1009.4 |
| 20260510060001 | 62 | 243 | 0.0 | 4.3 | 0.00 | 0.14 | 0.00 | 71 | 1009.7 |
| 20260510054611 | 61 | 211 | 0.0 | 0.0 | 0.00 | 0.14 | 0.00 | 73 | 1009.6 |
| 20260510053058 | 60 | 225 | 0.0 | 0.0 | 0.00 | 0.14 | 0.00 | 73 | 1009.4 |
| 20260510051557 | 60 | 163 | 0.0 | 0.0 | 0.00 | 0.14 | 0.00 | 73 | 1009.2 |
| 20260510050056 | 60 | 287 | 0.0 | 0.0 | 0.00 | 0.14 | 0.00 | 73 | 1009.0 |
| 20260510044554 | 60 | 185 | 0.0 | 0.0 | 0.00 | 0.15 | 0.00 | 73 | 1009.1 |
| 20260510043052 | 60 | 189 | 0.0 | 0.0 | 0.00 | 0.15 | 0.00 | 72 | 1008.9 |
| 20260510041612 | 61 | 217 | 0.0 | 0.0 | 0.00 | 0.15 | 0.00 | 70 | 1008.8 |
| 20260510040048 | 62 | 190 | 0.0 | 0.0 | 0.00 | 0.15 | 0.00 | 69 | 1008.7 |
| 20260510034553 | 62 | 214 | 0.0 | 0.0 | 0.00 | 0.15 | 0.15 | 68 | 1008.5 |
| 20260510033051 | 63 | 217 | 0.0 | 0.0 | 0.00 | 0.15 | 0.15 | 67 | 1008.5 |
| 20260510031552 | 63 | 195 | 0.0 | 0.0 | 0.00 | 0.15 | 0.15 | 66 | 1008.4 |
| 20260510030046 | 63 | 215 | 0.0 | 0.0 | 0.00 | 0.15 | 0.15 | 66 | 1008.5 |
| 20260510024604 | 64 | 184 | 0.0 | 0.0 | 0.00 | 0.15 | 0.15 | 65 | 1008.4 |
| 20260510023044 | 65 | 203 | 0.0 | 0.0 | 0.00 | 0.15 | 0.15 | 64 | 1008.2 |
| 20260510021542 | 64 | 207 | 0.0 | 4.3 | 0.00 | 0.15 | 0.15 | 64 | 1008.1 |
| 20260510020042 | 65 | 184 | 0.0 | 0.9 | 0.00 | 0.15 | 0.15 | 63 | 1007.9 |
| 20260510014541 | 65 | 229 | 0.0 | 3.5 | 0.00 | 0.16 | 0.15 | 62 | 1007.7 |
| 20260510013054 | 66 | 215 | 0.0 | 0.0 | 0.00 | 0.16 | 0.15 | 61 | 1007.3 |
| 20260510011541 | 66 | 209 | 0.0 | 0.9 | 0.00 | 0.16 | 0.15 | 60 | 1007.2 |
| 20260510010040 | 66 | 204 | 0.0 | 0.0 | 0.00 | 0.16 | 0.15 | 60 | 1006.8 |
| 20260510004545 | 67 | 202 | 0.0 | 0.0 | 0.00 | 0.17 | 0.15 | 58 | 1006.9 |
| 20260510003040 | 67 | 211 | 0.0 | 4.3 | 0.00 | 0.17 | 0.15 | 56 | 1006.9 |
| 20260510001539 | 68 | 250 | 0.0 | 6.1 | 0.00 | 0.17 | 0.15 | 55 | 1006.4 |
| 20260510000039 | 68 | 223 | 0.0 | 7.0 | 0.00 | 0.17 | 0.15 | 54 | 1006.3 |
| 20260509234538 | 69 | 210 | 0.0 | 5.2 | 0.00 | 0.17 | 0.15 | 54 | 1006.2 |
| 20260509233037 | 69 | 244 | 0.9 | 7.0 | 0.00 | 0.17 | 0.15 | 53 | 1006.3 |
| 20260509231536 | 70 | 233 | 2.6 | 7.8 | 0.00 | 0.17 | 0.15 | 51 | 1006.2 |
| 20260509230035 | 70 | 229 | 0.0 | 9.6 | 0.00 | 0.17 | 0.15 | 53 | 1006.0 |
| 20260509224536 | 70 | 194 | 1.7 | 9.6 | 0.00 | 0.17 | 0.15 | 55 | 1005.9 |
| 20260509223043 | 70 | 229 | 0.9 | 7.8 | 0.00 | 0.17 | 0.15 | 57 | 1005.9 |
| 20260509221533 | 70 | 221 | 1.7 | 7.8 | 0.00 | 0.17 | 0.15 | 56 | 1006.0 |
| 20260509220033 | 70 | 225 | 0.0 | 7.8 | 0.00 | 0.17 | 0.15 | 57 | 1005.8 |
| 20260509214529 | 70 | 197 | 1.7 | 7.0 | 0.00 | 0.17 | 0.15 | 56 | 1006.0 |
| 20260509213028 | 70 | 209 | 2.6 | 7.0 | 0.00 | 0.17 | 0.15 | 56 | 1006.1 |
| 20260509211530 | 69 | 197 | 1.7 | 6.1 | 0.00 | 0.17 | 0.15 | 57 | 1006.3 |
| 20260509210029 | 70 | 319 | 0.0 | 7.0 | 0.00 | 0.17 | 0.15 | 58 | 1006.5 |
| 20260509204522 | 69 | 215 | 0.9 | 7.8 | 0.00 | 0.17 | 0.15 | 60 | 1006.6 |
| 20260509203024 | 69 | 198 | 0.0 | 7.0 | 0.00 | 0.17 | 0.15 | 61 | 1006.6 |
| 20260509201524 | 68 | 213 | 1.7 | 8.7 | 0.00 | 0.17 | 0.15 | 62 | 1006.9 |
| 20260509200015 | 68 | 188 | 0.0 | 8.7 | 0.00 | 0.17 | 0.15 | 61 | 1007.1 |
| 20260509194514 | 68 | 167 | 1.7 | 12.2 | 0.00 | 0.17 | 0.15 | 62 | 1007.0 |
| 20260509193014 | 68 | 157 | 0.0 | 6.1 | 0.00 | 0.17 | 0.15 | 61 | 1007.1 |
| 20260509191511 | 68 | 214 | 1.7 | 7.8 | 0.00 | 0.17 | 0.15 | 62 | 1007.2 |